Theta_e
306 306 305 305 305 306 306 307 306 306 307 307 308 308 308 309 309 309 310 310 310 310 312 313 313 314 315 316 317 318 319 319 319 318 316 315 314 315 315 314 312 309 307 306 309 312 313 314 319 323 324 322 322 322 321 322 324 324 323 322 319 321 322 322 325 326 325 327 328 324 323 325 326 322 320 321 322 325 324 324 327 327 328 330 331 330 330 332
306 305 305 305 305 305 306 306 307 307 307 307 308 308 308 309 309 309 310 309 309 309 310 312 313 313 314 315 316 317 318 319 319 317 316 316 316 317 317 316 315 311 308 308 312 315 313 314 321 323 321 321 322 321 320 321 323 323 323 322 319 321 322 323 324 326 326 326 327 326 323 324 325 324 322 324 325 325 325 325 326 327 328 331 331 330 331 333
305 305 304 304 305 305 305 306 306 306 306 307 308 308 308 308 309 309 310 309 309 309 309 311 312 313 314 315 316 316 318 319 318 316 316 317 317 316 316 317 318 315 310 309 313 317 316 318 322 322 320 320 321 321 320 320 321 322 324 322 320 321 322 322 324 325 326 325 328 326 322 322 323 323 322 325 326 325 326 327 326 326 327 330 332 331 332 333
303 304 304 304 304 305 305 305 306 305 306 306 307 308 308 308 308 309 309 310 310 310 310 310 311 313 314 315 315 316 318 318 315 315 317 317 317 315 314 316 319 319 315 309 314 320 321 321 321 321 320 319 322 321 320 320 320 322 323 321 321 322 320 321 322 324 324 323 326 325 322 323 322 322 322 325 327 326 326 326 326 326 325 330 332 331 332 333
302 302 303 304 304 304 304 305 305 305 305 306 306 307 308 308 308 308 309 310 310 310 310 310 311 312 314 315 315 315 317 317 315 316 318 318 315 313 313 314 316 320 317 310 315 321 320 320 319 319 319 318 322 321 320 321 320 321 321 321 322 321 319 321 322 323 323 321 324 325 324 325 323 322 323 325 327 327 326 326 326 326 325 330 332 332 333 333
302 302 302 303 303 303 303 304 305 305 305 305 306 306 307 308 308 308 309 309 310 310 310 310 310 311 313 314 314 315 317 317 315 317 319 319 314 313 314 313 315 318 316 312 318 321 320 319 316 316 316 317 320 319 320 321 319 320 321 322 322 321 320 321 321 321 320 322 324 324 324 323 323 325 323 323 326 326 325 323 324 324 324 330 333 332 332 332
303 302 302 302 302 303 303 303 303 304 304 304 305 306 306 307 307 308 308 309 309 310 310 310 311 311 312 313 314 315 316 317 316 315 318 318 315 315 315 313 314 316 315 317 319 319 319 319 315 315 316 315 318 319 320 321 320 320 321 322 322 321 321 321 320 319 319 322 323 321 321 323 325 326 323 322 325 325 322 320 322 323 324 329 332 331 332 333
303 303 303 303 303 303 302 303 303 304 304 304 305 306 306 306 307 308 308 308 309 310 310 310 311 311 312 313 314 314 315 316 316 315 316 317 316 316 316 314 314 315 315 317 318 318 319 319 316 317 315 313 316 319 320 321 321 321 321 321 321 320 322 321 319 319 319 321 320 320 322 324 324 323 321 323 325 325 322 320 323 325 326 329 330 331 332 333
302 303 303 302 302 302 302 302 303 303 304 304 305 305 305 305 307 307 308 308 309 309 310 310 311 311 311 313 314 314 315 315 315 315 315 316 316 316 315 314 315 315 314 315 316 319 319 318 319 318 316 316 317 319 321 319 318 321 321 321 321 321 321 320 320 320 319 319 319 321 325 324 321 320 322 324 324 325 322 321 325 327 328 329 330 330 331 332
302 302 302 301 301 301 301 301 302 303 303 304 304 304 304 304 305 306 307 308 308 308 309 310 311 311 311 312 313 313 313 312 313 314 313 313 313 313 313 312 313 315 315 315 316 318 318 319 319 319 319 320 319 319 321 319 317 320 321 321 321 320 320 318 320 320 318 319 319 321 325 324 319 320 325 324 323 324 322 322 325 326 327 329 329 330 332 332
302 302 302 301 300 300 300 301 301 302 303 303 303 304 304 303 304 305 306 307 308 308 308 309 310 310 311 312 312 312 312 311 312 312 312 313 313 313 312 309 312 315 316 317 316 316 317 318 319 319 319 319 319 320 321 319 318 319 319 321 321 320 320 319 319 319 319 321 319 320 324 323 320 320 324 323 322 322 321 322 323 325 326 327 329 330 331 332
302 302 302 302 301 301 301 301 301 301 302 303 303 303 303 303 303 304 305 306 307 308 308 309 309 310 310 311 311 311 311 312 313 312 313 313 314 315 313 310 311 314 315 318 318 316 315 317 318 320 318 317 319 319 320 318 318 319 318 322 322 322 322 321 321 319 320 322 319 320 322 322 322 322 323 322 322 321 321 322 322 324 325 326 328 330 331 332
302 302 302 302 301 301 301 301 301 301 301 302 302 303 303 303 303 304 304 305 307 308 308 308 309 309 309 310 310 311 311 311 311 311 312 313 313 315 315 313 313 313 315 317 319 317 315 316 319 319 318 317 318 318 317 317 318 319 320 321 321 322 322 321 321 319 320 322 319 320 321 321 322 323 323 322 321 322 321 322 322 322 324 325 326 327 328 331
301 302 302 302 302 302 302 301 301 301 301 302 302 302 302 303 303 304 304 305 306 307 308 308 309 310 309 309 310 311 311 311 312 312 312 313 313 315 315 315 313 312 314 316 318 318 315 316 319 319 318 318 319 318 318 318 318 320 321 320 320 321 321 320 320 320 321 321 319 321 322 320 320 321 321 321 321 322 322 321 322 322 322 323 324 325 326 328
301 301 302 302 301 301 302 301 301 301 302 302 302 302 302 302 303 303 304 305 306 306 307 308 308 309 309 309 309 309 309 309 311 312 313 314 314 315 315 315 314 313 314 317 319 318 315 317 317 316 318 319 320 320 320 320 319 320 320 320 321 320 319 318 317 319 322 320 318 321 322 321 320 321 320 319 319 321 321 321 321 321 322 322 322 323 323 324
301 301 301 301 301 301 301 302 301 301 301 301 301 302 302 302 302 302 303 304 305 306 307 307 308 308 309 309 309 309 310 311 311 310 311 313 314 314 315 316 317 317 317 319 320 318 316 318 317 316 318 318 320 321 320 320 320 320 320 320 323 321 318 318 316 317 320 319 319 320 321 320 319 320 318 316 317 319 320 321 321 321 321 321 321 321 321 321
301 301 301 301 301 301 301 301 301 301 301 301 301 301 301 301 301 302 302 303 304 305 306 307 307 307 308 309 309 309 310 312 312 310 310 311 312 314 315 316 319 320 320 320 319 317 317 319 317 317 318 317 319 320 318 318 319 321 320 320 321 320 319 318 315 315 316 318 320 320 320 319 318 318 317 315 316 317 318 320 320 321 321 321 321 320 320 320
301 301 301 301 301 301 301 301 301 300 301 301 301 300 300 300 300 301 302 303 304 305 305 306 306 307 309 309 309 310 310 311 312 312 312 311 311 313 315 316 319 320 320 319 319 318 318 318 317 316 317 317 318 319 316 314 317 321 321 319 319 319 318 318 316 314 314 317 319 320 321 320 320 319 319 318 317 317 318 318 319 319 319 319 320 319 319 319
301 301 301 301 301 301 301 301 301 301 301 301 300 299 299 300 301 302 303 304 304 305 305 306 306 307 309 308 309 310 310 311 312 313 313 313 313 314 315 316 318 320 319 318 318 318 317 318 319 317 317 317 316 317 315 313 313 318 320 319 318 317 317 317 316 313 313 316 318 319 320 320 320 320 319 319 318 317 318 318 319 318 318 318 319 319 319 318
301 301 301 301 301 300 301 301 300 301 301 300 300 300 300 301 301 302 304 304 304 304 305 306 306 307 307 308 309 310 310 311 312 313 313 314 314 314 315 316 318 319 318 318 318 318 317 318 319 318 316 316 316 316 315 312 311 314 318 319 317 316 315 315 315 314 313 315 317 317 319 319 319 319 318 319 319 318 318 318 318 318 318 318 318 318 319 319
301 301 301 300 300 300 300 300 300 301 300 300 300 300 300 301 301 301 303 303 303 304 304 305 306 306 307 308 309 309 309 310 311 312 313 313 314 315 315 315 317 318 317 317 318 318 319 318 318 317 316 315 316 317 316 314 312 312 314 316 316 315 315 313 313 314 313 314 315 316 316 317 317 317 317 317 318 317 317 317 317 317 318 318 318 318 318 318
301 301 301 300 300 300 300 300 300 300 300 300 300 301 301 301 301 301 302 301 302 304 304 305 305 305 306 307 308 308 308 309 309 310 312 312 314 315 315 316 317 317 317 318 318 319 319 318 316 316 315 314 315 317 317 315 313 312 312 314 315 315 315 313 313 313 313 313 314 315 315 314 314 315 315 315 316 317 317 317 317 317 317 317 317 317 317 318
300 301 300 300 299 299 300 300 300 300 300 300 300 301 301 301 301 301 301 301 302 302 303 304 305 305 305 306 307 307 308 308 308 309 311 312 313 314 315 316 316 316 318 319 318 318 318 317 315 315 314 314 315 316 317 317 315 313 313 313 313 314 313 312 312 312 312 313 314 315 314 313 313 313 313 313 313 314 315 316 316 316 317 316 316 317 317 317
300 300 300 300 299 299 300 299 300 300 300 300 300 300 300 300 301 301 301 301 301 302 303 304 305 305 305 306 307 307 307 307 308 309 311 312 313 313 314 316 316 317 318 317 317 317 317 315 314 314 314 314 315 316 317 317 316 316 315 314 313 313 312 311 311 311 311 312 313 313 312 311 312 312 312 312 312 313 313 314 314 314 315 315 316 316 316 316
300 300 300 300 300 300 299 299 300 300 299 300 299 299 299 300 301 300 300 300 300 302 303 304 305 305 305 306 307 306 306 307 308 309 311 312 312 313 313 314 316 317 316 316 317 317 316 314 314 315 314 314 315 316 317 316 316 317 317 317 315 312 312 313 313 311 311 310 312 312 307 306 309 311 311 310 311 311 311 312 312 312 313 313 314 314 314 315
300 299 300 300 300 300 299 300 300 299 299 300 300 299 300 300 300 300 300 300 300 302 303 304 304 305 305 306 307 306 307 307 307 309 311 312 312 312 313 313 315 316 315 316 317 317 316 315 314 315 315 315 315 315 317 316 315 316 316 317 317 314 313 314 314 312 311 310 311 310 307 307 309 309 309 309 309 309 310 310 310 311 312 312 312 313 313 313
300 300 300 300 300 300 300 300 300 299 300 300 299 299 300 300 300 299 300 299 299 302 304 304 304 304 304 307 307 306 307 307 307 308 309 311 312 311 312 314 314 314 314 316 318 317 316 315 315 315 316 316 315 314 316 316 314 315 316 317 317 316 315 315 314 312 312 312 312 311 311 311 311 310 309 309 309 309 310 311 311 311 312 312 312 312 312 313
301 301 300 300 300 300 300 300 300 300 300 299 299 299 300 300 300 299 299 298 300 302 303 304 305 304 305 307 306 305 307 307 307 308 308 310 311 310 311 314 313 313 314 317 319 317 315 316 315 315 316 316 315 314 315 315 314 315 316 317 317 317 316 315 315 314 315 315 313 312 313 311 310 311 310 309 309 309 310 311 311 312 312 312 312 312 313 313
301 301 300 300 300 300 300 300 300 300 299 299 299 299 299 299 300 299 299 299 300 301 302 304 305 304 306 308 306 305 306 306 308 309 308 310 311 311 312 312 312 313 315 316 317 316 314 315 314 315 315 315 314 314 315 316 315 314 314 316 317 317 317 316 316 316 317 317 314 313 313 309 308 311 310 310 310 309 310 311 310 311 312 313 313 312 312 312
302 302 301 300 300 300 300 300 300 299 299 299 299 299 299 300 300 299 299 300 298 300 302 305 306 305 307 308 307 306 305 306 309 309 308 309 310 311 311 311 312 313 314 314 315 315 314 313 313 315 315 314 313 314 316 316 315 314 315 316 317 316 316 316 317 317 317 317 315 313 312 308 307 310 310 311 311 310 310 310 310 311 312 313 313 312 312 311
301 302 301 300 300 300 300 300 300 299 299 299 299 300 299 299 299 299 300 299 296 300 302 303 306 306 307 308 308 307 306 306 308 308 310 310 310 311 310 310 311 311 312 313 313 313 314 314 315 315 314 314 315 315 315 316 315 314 316 316 316 316 317 316 317 318 316 315 314 313 312 310 309 309 308 310 311 310 309 309 309 311 312 313 313 312 312 311
302 302 302 301 301 300 300 300 300 299 299 299 299 300 299 298 298 298 299 297 296 300 301 302 305 306 306 307 307 307 306 306 306 308 311 310 310 311 310 309 310 311 312 313 313 313 315 315 315 315 314 314 315 315 315 316 315 314 315 314 313 313 316 316 317 318 316 314 313 312 311 311 311 309 308 309 310 310 310 310 309 309 311 313 314 313 312 312
301 302 302 301 301 300 300 300 300 299 299 299 299 299 297 297 297 298 298 297 297 300 301 302 304 304 304 304 306 307 307 307 306 306 309 310 310 311 310 309 309 310 311 312 313 314 315 316 315 314 315 314 314 316 317 317 316 315 315 315 313 313 315 316 316 316 316 314 313 312 312 313 311 310 311 310 310 310 310 311 312 311 312 312 313 312 312 313
300 300 301 301 301 301 300 300 300 299 299 299 299 297 297 297 297 297 298 297 298 300 300 301 302 303 302 302 305 308 306 306 307 307 308 309 309 310 310 310 309 309 309 311 312 313 314 317 316 315 315 315 314 315 317 317 316 315 314 314 314 313 314 315 315 315 315 314 314 314 314 313 310 310 313 311 311 312 311 310 312 312 312 312 312 311 312 312
300 300 301 301 301 301 300 300 300 299 299 299 298 297 297 297 296 296 297 297 299 300 300 301 302 302 303 303 304 306 305 305 307 307 308 308 308 309 310 310 310 309 310 310 311 312 313 315 316 314 315 315 314 314 314 316 316 316 315 316 315 313 313 313 312 312 312 312 313 315 315 313 310 312 313 312 312 312 311 311 311 311 312 313 313 312 313 313
300 300 301 301 301 300 300 300 300 299 299 299 298 298 297 296 295 296 297 299 300 301 301 301 301 301 302 303 304 305 304 304 306 307 308 308 308 308 309 310 309 309 310 310 310 311 311 313 315 314 315 315 315 314 314 315 316 317 317 317 315 313 313 313 312 311 311 312 313 315 315 313 312 313 312 312 313 312 312 311 311 311 312 313 313 313 314 315
300 300 301 301 301 300 300 300 300 299 299 298 298 298 297 296 295 297 300 301 299 301 301 300 300 300 301 302 304 305 305 304 305 307 307 308 308 308 308 309 309 310 310 309 309 310 310 312 314 315 315 315 314 315 315 314 315 317 318 318 314 313 315 313 313 312 312 313 314 314 314 312 313 314 312 311 313 313 313 313 312 312 312 312 313 314 314 315
300 300 301 301 301 300 300 300 300 299 299 299 299 299 297 296 296 296 299 299 299 300 301 299 300 301 301 302 302 304 305 304 305 306 307 307 308 308 308 308 309 310 309 309 309 309 310 311 312 314 315 314 314 315 315 316 315 315 316 316 315 316 317 315 314 314 314 314 314 313 313 312 313 313 311 311 312 313 313 313 313 313 312 313 313 314 314 315
300 300 300 301 301 301 300 300 300 299 299 300 300 299 298 297 297 297 298 298 298 299 299 299 300 300 300 302 302 303 304 304 305 305 306 306 307 308 308 308 308 309 309 309 310 309 309 310 310 312 314 314 314 315 316 317 315 311 313 317 317 316 316 315 315 314 314 315 314 314 313 313 313 312 311 312 312 312 312 313 313 312 313 314 314 315 315 314
300 300 300 301 300 301 301 300 299 298 299 300 299 299 299 297 297 298 298 298 299 298 298 298 299 299 300 301 301 301 302 303 304 304 304 306 307 307 308 307 307 308 309 309 310 310 309 309 309 310 311 312 313 314 315 317 316 313 313 317 318 315 315 315 315 314 314 314 314 314 314 313 312 312 312 311 311 311 312 312 313 313 313 314 315 315 314 314
299 299 300 301 301 301 300 298 298 298 299 300 300 299 299 298 297 298 298 299 299 298 298 298 298 299 299 299 299 300 301 302 303 303 303 305 306 306 306 306 306 307 309 311 311 310 310 309 309 309 309 310 313 313 313 315 317 315 314 316 317 316 315 316 316 315 315 314 314 314 313 313 311 311 311 311 311 311 311 312 313 314 314 314 316 315 312 313
299 299 300 300 300 300 299 298 298 298 299 300 300 299 298 298 298 297 297 299 299 298 298 298 298 298 299 298 299 300 301 301 302 302 302 304 305 305 307 307 306 306 307 309 311 310 309 309 310 310 309 310 312 311 310 312 313 313 312 314 316 316 315 316 316 316 315 315 314 313 314 314 311 310 310 310 311 311 311 312 312 313 313 313 315 315 313 313
298 298 299 300 300 299 299 299 299 298 299 299 299 299 298 298 298 297 297 298 298 298 298 298 298 298 298 299 299 301 301 300 300 301 301 302 302 304 306 308 307 307 306 308 310 310 309 309 310 310 310 309 310 310 308 308 309 310 310 312 314 316 315 315 314 314 315 315 315 314 315 314 311 311 312 311 311 311 311 310 311 312 312 312 313 314 315 314
296 297 298 299 300 299 299 300 299 299 300 299 299 299 298 298 297 297 297 297 298 299 298 298 298 298 299 299 299 300 301 299 300 301 301 301 302 304 307 307 307 307 307 308 309 309 309 310 310 310 310 310 310 310 310 308 307 309 310 311 313 314 315 316 314 312 313 315 314 315 315 314 311 312 311 309 310 310 309 308 309 311 312 312 313 314 314 312
296 297 297 297 299 299 299 299 299 299 300 300 300 300 299 298 298 297 297 297 298 299 298 298 299 299 299 299 299 300 300 300 299 300 302 302 303 306 308 307 306 306 306 308 307 306 308 310 310 310 310 310 310 310 311 310 308 309 309 310 312 313 314 315 314 313 314 315 314 314 315 313 311 310 308 308 310 309 308 308 308 309 311 312 313 313 312 311
297 298 298 297 297 298 298 299 298 299 300 300 300 300 299 299 298 297 297 297 297 298 298 298 299 299 299 299 299 299 300 300 299 300 301 301 302 305 306 305 305 305 305 306 307 306 306 308 309 310 310 308 308 309 309 310 311 311 310 309 311 312 312 313 313 314 314 314 314 314 313 313 312 310 309 309 310 309 309 309 308 308 310 310 311 311 310 309
297 298 298 298 298 298 298 298 298 299 299 299 300 300 300 300 299 298 297 297 298 297 298 298 298 298 298 299 299 298 299 300 300 300 300 301 302 304 305 304 304 304 305 306 306 306 306 306 307 309 309 309 308 309 309 309 310 311 311 310 310 311 312 313 313 313 313 314 315 313 312 313 313 311 311 310 309 310 309 309 308 308 309 310 309 308 307 308
296 297 297 297 298 299 299 299 299 299 299 299 300 300 300 300 299 299 298 297 297 297 298 298 298 298 298 298 298 298 298 299 300 300 300 300 301 302 302 303 304 304 305 306 306 306 306 306 306 307 308 308 308 308 308 308 309 309 310 311 310 311 312 313 313 313 313 314 314 312 312 313 312 311 311 310 310 310 309 309 309 308 309 309 309 308 308 307
296 296 296 296 297 298 298 298 298 298 299 299 300 300 300 300 300 299 298 297 297 297 297 298 298 298 299 298 298 298 298 299 299 299 300 300 301 301 301 301 302 303 304 305 305 305 305 305 306 306 307 307 307 307 308 308 308 309 309 309 310 310 311 312 312 312 313 313 313 313 314 313 312 311 311 311 311 310 309 310 310 309 309 310 310 310 309 308
295 296 296 296 296 296 297 297 297 298 298 299 300 300 300 300 300 300 299 298 298 298 297 298 298 298 299 299 299 298 298 299 298 298 299 300 300 300 300 300 301 303 303 303 303 303 305 306 306 306 307 307 307 308 308 308 307 307 307 308 308 309 310 311 311 311 312 312 311 312 312 311 311 311 311 311 311 310 309 310 310 309 310 312 312 312 311 309
295 295 295 296 296 296 297 297 297 298 298 299 300 300 300 300 300 301 300 299 299 298 298 298 298 298 298 299 299 299 299 299 299 298 298 299 299 300 300 300 301 302 302 302 302 302 303 305 305 305 306 306 306 307 307 307 307 307 307 307 308 308 309 309 309 309 311 311 311 311 311 311 311 310 310 310 310 310 309 308 309 310 311 311 312 312 311 310
294 294 295 295 296 296 296 296 297 297 298 299 299 300 300 300 300 301 301 300 299 299 299 299 298 298 298 298 298 299 299 299 299 298 298 298 298 299 300 300 301 301 301 303 302 301 302 303 303 304 305 304 305 306 306 306 307 307 306 306 306 306 307 307 308 308 309 310 311 311 311 310 310 310 310 310 310 310 309 308 309 310 310 311 310 310 311 310
Wind_Speed
16 16 16 15 16 16 17 17 17 17 17 17 17 17 16 17 17 17 17 17 17 16 16 17 17 17 17 18 19 19 20 18 19 19 16 15 11 8 10 11 11 13 12 9 5 6 5 1 1 2 4 2 1 2 2 1 2 4 4 6 7 7 7 7 9 6 2 4 7 7 8 10 7 6 4 3 5 5 4 6 4 3 5 3 2 2 4 11
17 17 17 16 16 16 17 17 17 17 17 17 17 17 16 16 16 17 17 18 18 17 16 16 16 17 17 18 19 19 19 18 18 19 15 6 4 8 11 10 9 9 6 6 2 3 3 2 1 2 4 3 2 2 3 2 4 6 4 6 8 7 6 4 7 6 2 4 5 6 6 8 6 6 6 6 9 8 7 8 6 6 8 6 3 3 8 13
17 17 17 17 17 17 17 17 17 17 17 17 17 17 17 17 16 16 17 17 18 18 17 16 16 16 16 17 17 19 18 16 16 12 5 5 7 10 13 12 8 6 4 4 3 1 1 1 1 3 3 3 2 2 4 4 4 6 4 7 8 6 4 3 5 6 3 3 2 4 3 5 4 4 6 7 8 10 11 9 8 10 11 9 7 7 11 13
17 17 18 17 17 17 17 17 17 18 18 17 17 17 17 17 17 16 16 17 17 17 17 16 15 15 16 16 17 17 15 12 8 4 9 8 5 10 14 15 10 4 3 3 4 2 2 1 1 2 4 4 2 2 5 5 4 3 6 8 4 3 5 6 6 6 3 2 3 2 3 5 3 2 5 7 8 9 11 11 10 12 11 10 9 9 11 13
17 18 18 18 18 18 17 17 17 17 18 18 18 18 17 17 17 17 16 16 17 17 17 16 15 15 16 15 15 15 10 6 0 9 9 6 3 13 15 14 14 7 2 3 4 3 2 2 2 2 3 4 4 4 6 5 2 3 8 7 2 2 5 3 2 3 2 1 3 2 4 4 3 3 6 9 11 7 7 9 10 10 5 7 10 11 11 12
17 17 18 18 18 18 17 17 18 18 18 18 18 18 18 17 17 17 17 16 16 16 16 16 15 15 15 15 14 11 4 4 2 6 7 5 1 14 15 12 16 11 1 4 4 2 3 3 4 4 3 4 6 7 5 4 2 5 8 4 1 3 5 1 2 1 2 4 5 3 2 1 3 6 4 8 12 3 3 1 2 3 1 4 9 11 12 12
17 17 17 18 18 18 18 18 18 18 18 18 18 18 18 18 17 17 17 17 16 16 16 15 15 14 15 15 11 6 6 9 7 6 6 5 10 17 17 12 14 11 2 3 3 3 3 4 5 3 4 3 5 8 3 3 4 8 7 3 2 3 5 1 3 0 2 4 3 0 2 2 7 6 1 6 12 4 2 2 2 2 1 4 8 11 12 12
17 17 17 17 18 18 18 18 18 18 18 18 18 18 18 18 17 17 17 17 17 16 16 15 14 14 14 12 8 7 10 13 18 19 14 17 22 22 19 15 15 10 2 4 3 3 3 5 5 3 5 3 3 6 3 3 6 10 10 4 1 3 5 2 1 2 3 3 1 1 5 7 5 1 2 7 10 7 3 1 0 0 2 5 8 11 11 11
18 18 17 17 18 18 18 18 18 18 18 18 18 19 19 18 17 17 17 17 17 17 16 15 14 13 13 9 5 9 9 7 15 18 15 17 19 18 16 15 14 7 3 5 4 4 3 4 5 3 4 2 4 5 4 6 6 8 10 5 3 3 2 2 4 4 3 2 1 4 10 8 2 1 6 11 12 8 3 2 2 2 4 5 7 9 10 11
18 18 18 18 18 18 18 18 19 19 19 19 19 19 20 19 18 18 17 17 16 17 16 15 14 13 13 8 7 11 6 3 8 7 5 6 6 7 10 10 10 7 3 4 5 5 4 3 3 1 3 1 5 4 4 6 2 1 5 5 6 5 1 1 4 3 2 3 4 7 12 7 3 3 8 9 11 8 5 6 5 4 7 7 7 8 9 10
18 18 18 18 18 18 18 18 19 19 19 19 19 20 20 20 19 18 18 17 16 16 16 16 15 14 13 8 9 10 2 1 2 3 3 4 6 7 7 4 6 7 4 3 5 7 6 3 2 2 2 2 5 4 4 3 1 1 1 4 6 6 5 5 5 3 3 4 5 6 12 10 4 6 11 7 5 4 6 9 7 7 9 8 8 7 7 9
18 18 18 18 18 18 18 18 19 19 19 19 19 20 20 20 20 19 19 17 17 16 15 15 14 14 13 10 13 14 8 7 7 8 6 6 10 9 5 2 3 6 5 3 4 7 8 4 5 4 1 2 4 3 3 1 1 1 1 5 5 5 9 11 8 4 4 5 5 2 9 14 11 13 15 9 5 3 5 9 8 9 9 8 8 6 6 8
18 18 18 18 18 18 18 19 19 19 19 19 19 19 20 20 20 19 18 18 17 15 15 15 14 14 13 9 11 13 13 16 21 23 16 10 10 7 2 1 2 5 5 4 2 4 8 5 5 4 1 2 3 2 1 1 1 2 3 5 4 5 8 10 8 5 6 6 7 5 8 13 14 17 16 11 10 10 10 12 9 8 8 8 7 7 7 8
18 18 18 18 18 18 18 18 19 19 19 19 19 19 20 20 20 19 19 19 18 16 15 14 13 12 11 9 9 11 12 14 20 23 18 13 10 6 3 2 2 4 5 6 3 2 8 6 2 3 1 2 1 1 2 2 2 4 3 3 5 7 4 6 6 7 10 6 8 9 10 11 9 10 11 10 12 14 15 16 14 11 9 8 8 7 9 9
18 18 18 17 18 18 17 18 18 19 19 19 19 19 20 19 20 19 18 18 17 16 15 14 13 10 8 10 11 14 17 18 21 20 16 13 11 9 4 1 2 4 5 5 3 3 7 6 3 4 3 1 2 3 4 2 3 4 4 4 6 7 3 4 5 10 13 5 9 12 9 9 11 10 6 7 10 13 15 17 16 14 11 10 9 9 9 9
17 17 17 17 17 17 17 18 18 18 19 19 19 19 19 20 20 19 19 18 17 16 13 11 12 10 8 7 6 9 12 14 18 22 21 16 13 11 7 3 1 3 4 3 2 4 6 6 3 2 2 3 5 5 3 3 4 5 6 5 5 6 5 3 4 8 11 4 8 15 9 6 7 6 1 4 8 11 12 15 15 15 13 10 9 8 8 8
17 17 17 17 17 17 17 17 18 18 19 19 19 19 20 20 19 19 18 16 16 15 13 10 8 8 7 5 4 6 9 10 10 15 23 23 20 16 11 7 2 2 4 3 3 5 5 5 3 1 3 5 6 6 5 8 7 5 5 5 4 7 6 4 3 3 6 5 9 15 14 13 9 4 3 4 6 8 10 12 12 11 11 10 8 8 9 9
16 16 16 16 17 17 17 17 18 18 18 19 19 19 21 21 20 18 16 15 12 11 11 9 6 6 6 6 7 6 6 9 10 12 17 21 22 20 15 9 3 4 5 3 4 6 5 5 5 4 5 6 7 8 9 7 7 9 8 6 6 7 7 6 3 2 4 8 10 13 13 17 17 13 9 6 7 8 9 11 10 9 9 10 10 9 9 9
16 16 16 16 17 17 17 17 17 17 18 18 18 19 19 17 14 12 12 10 8 6 6 5 6 5 4 3 5 4 4 5 8 11 13 15 16 17 16 9 5 7 7 6 7 9 6 4 6 7 8 10 11 14 12 2 3 10 9 7 7 6 7 6 2 1 3 6 10 14 13 14 18 18 15 12 9 8 10 10 9 9 10 10 10 10 10 10
16 15 15 16 16 16 16 16 16 16 17 17 17 15 11 7 6 5 6 6 8 10 10 6 7 10 9 3 4 5 3 4 6 8 9 12 12 12 13 9 6 8 9 9 8 8 8 6 9 11 11 13 15 16 11 1 2 5 6 6 7 6 6 4 2 2 1 5 8 11 12 14 17 18 16 12 8 8 10 11 12 12 12 11 12 12 12 13
17 16 15 15 16 16 16 15 15 15 16 15 12 8 5 4 5 4 3 5 10 13 15 14 12 14 14 9 4 8 5 3 6 7 7 9 12 11 10 11 10 9 11 12 7 6 8 10 14 15 11 9 11 12 9 4 2 3 5 7 7 8 5 1 2 2 2 4 6 6 9 13 15 18 18 12 9 9 11 13 14 16 15 12 12 14 14 13
17 16 15 15 16 16 15 15 15 16 16 13 9 7 7 7 8 6 4 6 11 13 15 17 17 16 15 14 9 6 7 6 7 8 8 9 11 11 9 11 12 11 12 11 8 6 10 14 17 15 8 6 8 10 11 10 7 5 5 7 7 6 3 1 3 2 2 4 4 4 8 12 13 16 19 16 12 10 12 15 15 15 14 13 13 13 14 13
16 15 15 15 15 15 15 15 15 16 15 11 8 8 9 9 9 7 4 4 9 11 11 13 15 14 14 15 11 9 10 9 9 10 10 10 10 11 10 11 13 13 12 12 12 11 10 11 13 13 9 8 9 11 12 10 9 8 7 7 6 4 3 3 3 2 4 5 5 5 7 11 12 14 17 19 17 12 13 16 15 13 13 15 15 12 11 13
16 15 15 14 15 14 14 15 15 14 12 9 11 12 12 13 12 9 4 4 8 8 11 16 14 11 14 14 12 14 12 9 9 10 11 13 9 8 10 11 13 13 12 16 18 16 14 6 4 12 12 11 12 11 12 9 8 10 10 10 6 4 3 1 1 1 3 5 5 5 8 10 11 14 15 15 15 13 13 14 14 14 13 14 15 13 14 16
17 16 15 14 14 13 14 15 12 9 9 8 10 11 11 12 13 11 4 3 6 4 6 13 9 10 17 14 11 13 11 10 11 9 8 14 12 7 8 8 9 13 16 20 18 16 18 8 6 10 12 13 14 11 13 10 7 9 11 13 7 4 3 2 3 1 2 4 3 3 8 8 8 14 14 11 10 10 8 10 13 14 13 12 13 15 16 16
17 16 15 14 12 13 13 10 5 5 5 5 7 8 11 10 9 7 2 3 6 3 2 6 7 9 15 13 12 11 8 11 15 13 9 14 15 7 7 7 4 11 16 16 12 8 12 10 9 10 11 13 14 11 13 12 7 7 7 11 9 5 5 3 2 1 2 3 1 2 8 8 4 9 10 7 7 8 6 7 11 12 11 12 12 14 14 13
18 16 15 15 13 11 10 5 3 4 5 5 7 9 12 11 5 3 1 4 6 4 4 5 7 4 7 13 16 12 6 7 12 16 15 16 12 2 6 10 6 9 10 7 7 5 9 13 12 13 12 11 12 11 12 14 10 5 5 10 12 10 10 9 6 6 4 3 2 5 6 8 9 8 7 8 6 9 8 8 9 10 10 11 11 12 12 13
18 16 14 15 13 12 11 7 5 6 8 8 8 9 11 7 1 2 1 4 4 1 2 3 3 2 0 11 19 13 4 4 8 14 18 20 14 4 7 14 12 12 10 7 8 4 7 17 17 17 14 11 12 11 11 15 10 2 6 7 10 11 11 10 8 6 3 3 6 9 7 6 11 5 7 8 11 14 12 11 11 10 11 11 12 12 12 13
18 16 15 14 13 12 12 10 9 10 10 8 7 8 9 4 2 0 2 5 3 1 1 1 2 0 2 9 16 15 5 3 3 6 13 17 15 9 7 11 13 13 10 9 12 6 3 11 16 18 14 12 15 11 14 17 9 3 7 5 5 6 6 7 6 5 3 3 9 10 11 7 11 5 8 7 9 11 10 9 11 12 12 11 11 12 12 11
17 16 15 13 12 11 10 10 13 14 11 8 7 7 6 1 1 1 5 4 2 0 1 1 1 1 4 8 11 15 12 4 2 2 9 11 14 12 4 2 6 8 7 7 12 12 5 2 8 13 12 12 13 10 13 15 9 9 8 7 6 4 3 4 4 4 4 7 13 12 14 10 11 5 7 6 6 8 7 7 10 11 11 10 9 10 10 8
16 16 15 13 14 12 8 8 12 12 10 9 6 4 2 1 2 4 6 2 3 0 2 1 1 2 6 10 9 11 14 9 0 3 7 7 10 12 5 3 3 3 6 6 9 12 10 5 4 5 7 8 8 7 7 9 11 10 7 6 5 3 4 3 4 5 7 8 9 10 14 13 11 6 3 4 6 9 9 10 11 11 11 10 9 8 7 5
16 15 14 13 15 14 11 9 8 5 6 6 2 0 1 1 4 6 3 2 3 0 2 3 2 3 3 8 7 8 12 10 4 5 8 8 9 10 10 10 8 6 7 7 8 10 10 9 6 1 3 9 10 7 5 7 11 10 8 8 7 5 5 6 6 7 9 8 4 8 11 11 12 13 10 6 6 8 9 8 10 11 11 9 7 5 3 3
17 16 14 13 15 17 17 16 10 5 5 5 3 1 2 3 4 5 4 2 2 2 2 3 2 3 2 3 5 5 8 9 7 6 7 10 8 9 14 15 12 10 6 6 9 8 6 7 10 7 5 11 15 11 7 7 10 13 11 10 10 8 7 9 7 6 7 9 5 7 5 5 8 12 13 15 13 11 11 10 9 9 8 5 3 2 3 3
19 16 13 14 17 19 19 18 15 10 9 9 4 1 4 6 4 2 4 5 3 2 1 2 3 3 1 2 2 1 3 7 6 7 7 8 7 8 12 14 16 12 5 6 8 8 9 7 10 13 7 13 18 14 11 10 11 14 11 10 12 9 8 8 7 8 7 4 5 8 4 5 7 2 0 5 6 5 8 8 6 7 7 5 4 4 6 6
21 16 12 13 16 19 19 18 17 14 13 9 4 4 6 7 4 2 3 4 3 4 4 4 3 4 3 4 3 4 4 5 5 7 8 8 9 9 9 10 16 14 8 8 6 6 13 9 10 15 9 14 19 15 12 11 9 12 10 11 13 10 9 6 3 4 3 2 3 7 5 6 6 2 2 2 1 1 4 4 6 10 9 7 6 7 7 6
20 13 10 11 15 19 20 21 19 18 15 7 5 7 7 6 3 2 2 2 1 1 4 6 4 4 4 3 3 4 6 4 5 6 6 9 11 11 11 9 13 17 13 9 5 5 10 8 11 15 9 11 17 16 16 15 8 7 9 11 6 4 7 8 4 1 1 6 5 6 7 9 8 9 9 9 5 4 4 4 7 10 10 8 7 9 9 5
16 10 8 12 17 19 20 22 24 22 13 6 7 7 6 5 5 4 1 2 1 1 2 4 3 3 3 2 1 3 5 3 4 4 3 6 8 10 14 10 11 17 16 12 9 6 7 7 7 13 12 13 14 12 12 15 12 7 9 12 4 2 3 6 8 4 4 8 6 8 13 12 8 7 7 12 13 10 9 8 7 6 8 8 9 11 8 4
14 9 9 14 18 19 20 25 28 21 9 5 11 11 7 5 5 6 4 2 3 2 1 3 2 2 2 2 2 1 4 3 3 4 3 3 4 9 14 13 10 15 19 17 11 4 4 7 4 10 14 10 9 8 6 10 11 3 5 11 7 2 5 8 10 8 8 10 7 11 16 12 11 8 3 9 13 12 12 11 8 7 8 8 9 10 6 3
12 6 6 8 10 14 21 29 27 14 5 7 13 11 6 5 6 6 4 3 2 2 3 5 3 2 3 2 2 2 1 2 1 2 3 2 3 5 10 11 10 14 18 18 12 5 4 7 7 8 10 5 5 7 6 7 10 6 3 7 7 3 6 9 10 7 9 12 9 11 13 10 11 11 9 9 9 8 9 10 10 12 13 10 8 7 5 4
7 3 4 6 7 10 22 26 17 6 4 7 9 6 3 3 6 7 7 6 4 3 5 6 4 3 3 2 2 2 2 2 2 2 2 2 4 4 4 7 9 12 17 17 13 9 6 7 8 5 6 5 4 7 10 12 12 7 4 6 6 3 2 5 9 7 8 10 9 10 11 8 5 6 11 14 10 10 11 10 9 11 13 11 8 5 4 4
5 3 4 5 7 10 18 13 5 4 5 6 6 5 4 3 4 6 8 7 5 3 2 5 8 6 3 2 3 3 3 3 4 3 3 3 4 4 3 3 5 6 10 12 11 10 7 6 9 7 4 7 7 7 11 12 10 10 8 8 10 9 5 6 10 8 6 8 9 10 10 8 3 4 8 11 11 13 14 12 9 9 11 12 7 4 5 5
4 4 4 4 5 15 15 5 3 4 5 6 5 4 4 5 5 5 6 4 5 4 1 4 10 8 5 4 3 2 3 4 5 5 5 5 7 7 2 3 2 4 3 7 11 10 6 4 9 10 7 9 9 5 3 5 6 8 7 7 11 11 10 10 11 9 8 9 9 8 11 9 3 3 5 8 9 9 10 10 9 8 9 9 5 3 6 7
3 6 8 8 13 19 11 4 5 5 6 4 1 3 4 4 5 5 7 6 5 4 3 4 7 8 8 5 3 2 3 5 7 8 8 8 10 10 5 4 3 2 3 6 9 7 3 2 8 10 8 8 8 4 2 3 3 7 7 6 9 11 13 12 8 7 9 10 9 8 12 11 3 4 4 4 4 4 4 6 8 8 6 5 6 6 6 6
4 6 7 8 19 22 8 4 6 7 9 5 3 6 6 4 5 7 8 10 7 4 5 5 5 7 7 4 4 4 4 4 7 9 9 8 7 7 7 8 7 5 3 3 4 2 2 4 8 9 8 7 7 6 6 4 3 5 7 7 9 11 13 9 3 4 8 11 14 12 11 8 3 5 4 3 4 5 4 6 8 8 6 6 7 6 5 4
5 4 3 4 12 14 5 2 2 4 8 9 9 9 7 4 7 9 10 10 8 6 6 6 5 6 5 4 5 6 5 5 6 6 7 7 4 2 5 9 9 7 8 9 6 1 3 5 8 9 10 10 9 8 8 8 7 5 5 7 8 11 14 9 3 6 8 9 14 13 10 9 6 5 5 4 6 7 7 7 7 7 7 6 5 5 4 4
3 3 2 2 2 4 2 1 2 4 4 7 8 7 8 8 5 6 9 9 8 9 9 7 5 4 5 6 7 7 8 8 7 6 6 7 5 2 2 5 7 8 10 12 8 3 2 4 7 11 12 12 12 9 5 6 8 8 8 10 11 13 15 10 7 7 4 5 11 12 12 15 14 10 7 7 8 9 8 8 7 7 8 7 5 4 3 3
2 2 2 2 1 2 4 3 3 5 4 4 4 2 7 10 5 4 8 9 9 11 11 8 6 7 7 8 9 10 11 11 11 11 11 9 7 4 1 3 5 8 9 8 7 4 1 5 8 12 14 15 15 13 8 7 10 11 13 16 17 16 15 14 12 10 7 8 11 12 15 19 19 17 11 8 9 8 7 8 9 7 6 4 3 4 4 5
2 2 1 1 1 2 3 3 4 7 9 7 4 2 6 9 7 6 7 6 7 9 9 8 10 13 14 12 11 11 11 11 12 13 12 9 8 8 6 3 5 8 7 5 4 4 4 7 8 10 13 14 14 15 13 11 11 12 13 16 18 18 18 18 17 16 15 14 11 13 18 20 18 19 16 10 9 9 8 8 6 3 2 3 4 6 7 7
2 2 1 0 2 4 6 7 7 9 12 10 6 5 9 11 11 10 6 4 6 9 11 11 13 15 16 15 13 13 13 12 11 9 8 9 9 7 7 6 5 5 5 4 4 4 4 7 10 10 11 13 13 12 12 12 13 13 14 16 18 18 20 20 17 18 20 18 14 15 18 16 14 16 16 11 7 8 8 6 3 3 5 6 7 8 8 8
1 2 2 1 3 6 7 7 7 8 9 9 8 7 9 13 15 13 6 7 8 8 12 17 18 14 15 15 15 19 20 15 13 10 7 8 9 6 6 6 3 1 2 3 3 3 5 8 10 8 9 12 12 11 11 11 11 13 14 16 18 17 16 16 16 17 17 16 16 19 19 15 12 14 16 14 9 7 8 7 6 6 8 9 9 9 8 9
4 6 5 4 5 5 6 6 6 7 6 6 8 7 8 13 15 13 9 11 13 9 11 19 20 13 12 14 18 24 22 16 16 16 10 10 10 6 5 5 3 2 2 3 3 2 4 6 6 4 6 10 10 11 12 12 12 14 14 13 14 13 12 13 14 15 17 17 18 20 18 13 11 14 16 18 16 11 10 10 9 9 10 10 10 9 8 9
7 8 5 4 4 4 6 6 6 7 6 6 8 9 11 14 13 12 10 8 13 15 14 16 14 10 11 15 20 24 19 13 15 14 9 11 13 9 6 5 5 4 4 4 3 2 3 4 5 5 7 11 12 11 11 10 9 10 11 13 14 13 14 15 13 14 17 17 15 15 14 12 14 16 17 19 20 17 12 12 12 12 12 11 11 11 10 10
Wind_Direction
343 341 339 337 333 333 333 332 328 325 322 321 321 319 317 318 319 317 316 314 312 312 313 315 318 321 324 328 329 324 320 316 316 312 301 299 308 316 317 314 306 294 275 272 303 318 330 299 257 270 237 213 226 213 170 194 179 202 221 226 230 216 204 193 199 198 234 231 177 170 194 204 187 168 179 161 205 208 173 197 196 202 227 219 101 78 128 146
343 340 337 335 333 332 331 330 328 326 323 322 321 319 316 313 315 315 314 313 312 309 310 314 315 318 320 324 327 327 324 317 309 298 289 309 37 21 356 335 315 309 280 251 272 332 325 353 352 251 221 205 188 188 199 181 185 215 221 228 232 219 201 197 218 211 236 269 188 170 199 212 202 164 170 195 195 192 202 202 202 218 216 197 165 150 148 154
341 339 337 334 333 332 330 328 326 324 323 321 319 319 316 312 311 311 313 312 311 310 309 311 312 315 316 320 325 328 330 318 305 288 248 113 74 28 8 355 331 304 301 235 208 308 301 38 334 247 214 216 189 185 208 172 188 220 220 236 235 210 214 222 230 228 229 296 228 176 181 217 215 147 171 205 196 190 208 205 196 215 215 194 163 151 158 163
339 337 336 335 333 331 330 328 325 322 321 319 317 316 315 313 310 308 310 310 310 310 309 309 310 313 312 316 320 328 334 313 297 180 151 126 72 18 5 6 9 315 300 217 189 140 152 138 233 231 211 214 183 201 212 185 185 199 208 239 243 169 227 223 209 230 227 303 271 178 158 211 194 147 195 198 193 197 213 212 205 216 213 187 159 154 165 170
339 336 336 335 333 330 328 327 325 321 318 318 316 313 312 312 309 307 306 306 307 308 309 307 305 309 309 312 317 332 338 302 245 149 159 147 72 15 3 6 16 360 309 193 178 148 174 176 170 176 210 214 185 202 214 198 179 211 220 247 348 148 230 224 181 230 207 256 261 191 194 201 141 192 219 207 208 207 208 216 219 225 214 166 161 160 167 177
340 337 335 333 332 330 328 325 323 321 317 316 314 313 310 308 307 305 303 303 303 303 306 305 304 305 305 307 313 329 314 261 59 145 183 183 314 355 348 351 7 5 11 173 162 176 196 180 191 184 199 218 203 208 207 178 194 238 229 237 270 210 240 350 42 234 199 214 214 206 229 123 182 213 215 222 229 215 95 172 241 247 38 130 160 162 172 183
339 338 335 333 332 328 327 324 322 321 318 316 313 311 308 305 305 304 302 299 298 300 302 303 302 302 301 306 308 305 254 252 274 251 229 253 291 319 320 321 341 351 18 178 171 193 200 195 207 180 189 213 213 213 203 156 202 238 240 228 204 217 243 305 32 260 215 228 218 302 294 213 219 221 151 231 240 236 92 60 15 359 95 151 166 173 185 188
337 336 335 333 331 329 327 325 323 320 319 317 313 310 307 304 303 303 303 298 296 295 296 299 299 300 301 306 310 278 253 253 264 267 272 278 283 294 296 297 305 321 322 214 202 202 199 204 203 172 208 213 197 204 190 197 211 230 240 237 176 218 242 254 350 238 228 251 285 286 250 235 226 249 270 240 243 235 198 130 7 90 157 179 189 189 193 193
334 333 332 331 329 328 327 325 324 320 318 316 313 310 306 305 303 303 303 299 296 292 291 296 294 297 296 296 294 270 262 264 270 272 277 278 282 286 282 280 279 281 253 228 211 211 198 208 201 187 239 217 192 197 180 215 218 224 235 239 226 238 249 238 238 226 224 244 236 243 246 244 183 324 261 238 242 237 182 205 205 186 200 200 203 199 199 201
331 330 329 328 327 325 324 324 322 320 318 315 313 311 309 307 303 300 301 299 298 293 289 290 293 294 289 282 261 257 264 289 276 278 294 293 306 306 291 278 253 232 232 212 200 214 209 224 203 194 291 229 199 199 177 209 227 265 246 252 241 250 279 222 241 217 221 234 208 238 251 246 140 214 244 219 233 237 211 230 215 215 232 219 215 208 205 210
329 327 326 326 326 323 322 321 319 319 317 315 313 311 311 308 303 300 299 297 296 294 290 287 292 290 280 268 244 243 217 155 301 5 1 350 353 338 326 298 222 209 211 200 215 220 224 247 176 179 281 179 185 197 199 216 316 359 283 260 235 247 252 230 243 214 206 229 201 235 263 257 176 219 243 212 207 217 215 235 221 223 238 228 226 215 208 219
325 324 324 324 324 323 322 320 318 317 315 314 312 310 311 308 304 301 298 296 293 293 291 285 287 286 276 258 245 246 237 236 286 311 306 330 326 320 329 318 204 215 222 214 234 223 225 229 186 206 280 174 178 178 209 210 266 263 248 254 228 235 245 227 228 205 204 217 164 190 270 252 223 228 238 220 211 214 217 236 225 222 233 231 230 224 218 223
321 321 321 322 323 322 321 320 318 317 315 314 312 310 309 307 305 301 299 296 291 290 290 285 284 284 273 257 252 250 244 250 266 274 278 294 303 305 322 307 225 227 230 228 265 227 217 211 205 230 322 238 209 121 196 139 186 224 215 249 240 243 243 214 203 178 208 213 148 172 257 247 229 230 228 210 216 231 236 240 231 219 226 231 228 230 233 227
317 317 317 320 321 320 320 319 318 318 316 313 312 311 308 306 303 300 298 294 290 288 285 282 283 280 264 254 261 252 248 259 262 261 264 266 271 285 291 295 259 226 219 222 260 240 208 199 225 239 229 262 272 119 194 145 182 207 201 233 235 240 222 167 179 180 205 204 156 192 249 252 239 227 209 194 213 227 236 240 237 226 219 225 227 229 236 233
313 313 314 317 318 320 320 319 318 317 316 315 313 311 308 305 302 299 296 294 292 286 282 281 276 269 263 263 265 261 255 255 255 251 252 254 248 253 267 287 241 209 198 208 241 223 193 185 206 221 200 228 262 225 204 182 193 190 207 220 213 228 210 152 174 191 210 205 169 199 244 254 248 245 200 168 204 221 235 240 239 237 226 221 227 230 236 240
309 309 312 314 316 318 318 318 319 317 316 315 312 310 307 303 302 300 296 293 291 288 283 277 264 248 260 274 253 251 244 233 244 245 241 243 238 235 250 255 190 170 176 183 200 172 167 178 200 239 224 200 215 217 197 206 206 193 217 221 190 212 234 214 176 198 221 218 186 208 236 253 241 248 175 139 199 214 231 239 238 240 238 231 230 233 236 244
304 307 309 311 315 315 316 318 317 317 317 315 312 309 304 303 301 297 295 290 288 289 275 265 276 259 254 272 247 234 234 226 233 235 231 235 237 232 236 238 208 146 161 146 151 152 161 183 175 210 224 213 210 199 203 219 209 188 207 226 207 211 228 218 167 174 217 221 214 216 233 251 247 220 151 144 189 209 229 240 240 241 247 248 242 241 241 243
303 306 306 309 312 313 315 317 317 320 318 314 311 308 303 301 300 294 291 283 280 287 272 258 275 274 245 245 258 242 226 232 226 222 221 225 229 225 221 220 192 172 177 176 182 169 177 195 192 214 209 207 205 197 210 219 197 184 186 206 214 212 229 228 194 129 182 212 225 223 229 247 255 251 239 212 182 202 231 243 247 245 250 255 253 248 245 242
306 304 306 308 309 312 314 315 318 320 316 313 313 315 311 302 295 283 270 263 258 252 252 225 201 241 264 235 267 272 227 226 223 221 216 213 215 212 211 205 176 190 204 216 197 177 183 190 196 216 212 205 202 203 213 216 177 194 187 199 210 208 224 229 212 121 190 217 223 229 234 243 254 257 253 241 211 214 239 248 252 248 244 247 249 251 250 247
311 306 305 305 307 311 312 314 318 316 314 318 323 328 326 316 303 280 248 236 238 239 250 241 203 237 266 271 10 349 284 239 230 223 213 204 187 184 198 194 189 208 216 217 199 179 188 203 210 216 217 209 203 207 217 348 24 208 196 211 222 222 221 213 199 149 181 245 230 229 241 246 256 262 260 246 214 214 236 242 248 249 245 242 243 249 253 254
314 309 305 304 307 308 309 313 313 311 313 318 327 329 318 315 305 315 336 265 255 249 253 258 243 245 258 264 335 353 333 280 253 244 229 205 175 174 190 191 204 215 213 215 210 185 196 217 225 221 219 205 194 205 221 240 248 219 212 219 227 228 225 149 179 161 138 252 248 236 251 251 252 264 267 254 218 220 234 235 241 246 248 248 244 246 250 256
314 310 306 304 306 308 310 310 307 309 313 314 316 299 280 275 267 285 325 286 266 246 244 254 254 254 257 258 267 295 297 276 263 251 225 204 190 191 189 188 207 217 208 205 203 201 209 226 231 224 210 169 172 200 217 224 223 224 221 223 231 220 215 224 205 193 188 237 260 257 264 260 253 259 267 264 248 234 235 237 241 247 253 255 250 245 244 248
312 308 307 305 305 308 308 305 304 306 309 306 289 271 273 272 266 280 284 275 275 249 232 240 246 246 246 248 237 233 258 254 255 250 205 194 208 207 198 194 208 219 209 197 201 209 216 234 235 219 191 169 187 201 206 216 223 225 220 221 229 180 180 236 201 181 219 239 281 291 274 266 257 256 261 264 259 246 238 239 243 247 251 257 258 258 252 247
311 307 304 303 305 307 304 303 304 304 304 293 272 272 287 286 279 285 277 266 276 251 221 224 230 230 229 234 211 206 235 230 237 250 193 189 217 214 212 207 206 218 213 206 212 219 225 238 206 195 183 185 203 200 197 210 221 224 222 226 229 166 181 289 100 187 239 234 261 284 281 269 240 234 245 253 249 241 237 235 241 243 243 254 264 268 261 253
307 305 300 300 302 302 301 303 303 303 300 282 278 297 317 303 284 280 275 266 269 256 224 220 216 225 224 218 188 192 226 223 227 245 187 192 214 213 223 218 209 219 214 212 215 225 230 214 135 180 186 192 206 203 201 206 218 228 224 225 225 158 163 48 62 329 300 241 212 221 271 274 218 214 229 239 238 234 226 224 235 242 240 243 255 259 259 256
301 300 297 297 297 295 298 303 298 306 305 283 293 326 339 326 299 278 253 276 268 235 200 198 190 214 206 185 164 170 218 225 217 221 201 205 213 212 231 218 212 225 216 213 215 230 230 193 151 180 191 199 209 212 203 195 216 239 209 202 203 170 180 175 131 191 262 262 160 179 256 275 236 214 210 208 237 240 213 212 229 239 240 235 238 246 254 259
299 294 292 292 290 286 288 287 275 295 296 293 313 331 338 335 307 257 243 286 271 205 172 174 177 204 193 175 161 159 213 212 193 208 208 205 203 211 251 220 220 230 214 207 215 214 204 191 180 185 194 207 216 222 203 189 215 240 146 169 184 186 202 206 204 213 236 295 286 211 235 273 271 244 190 177 227 241 220 211 217 225 234 235 236 241 245 251
298 291 286 286 285 275 268 265 264 269 270 288 317 330 342 350 246 222 263 277 290 162 155 188 176 32 139 176 168 176 220 133 163 209 203 194 189 173 240 228 231 232 207 197 218 203 184 199 195 189 198 212 221 225 191 185 215 221 118 156 181 188 200 202 205 219 239 306 262 222 193 254 271 233 170 191 230 239 229 222 225 227 228 230 235 240 242 246
297 289 282 280 281 270 262 256 248 257 269 283 308 324 341 360 159 215 257 257 289 195 166 184 195 245 143 165 182 205 228 110 165 207 180 184 192 194 229 233 235 242 228 215 227 229 195 207 199 191 198 214 221 208 172 184 207 138 116 111 134 165 185 195 199 210 201 224 253 226 177 221 274 223 165 192 226 234 227 222 234 237 233 229 231 239 245 248
296 286 281 274 269 263 256 248 249 259 268 270 284 315 336 346 154 270 246 256 339 214 159 108 196 220 153 159 196 218 220 224 348 103 161 181 194 198 222 242 226 247 249 239 243 246 258 233 190 195 205 213 215 190 171 185 168 130 130 107 103 122 143 181 195 199 206 231 249 224 176 205 269 245 181 188 196 205 211 218 230 235 238 238 233 236 245 249
302 286 278 265 256 255 247 247 259 262 257 259 279 314 319 226 198 244 238 275 358 125 94 64 194 161 173 184 200 213 217 229 319 144 180 180 191 197 196 194 186 230 243 242 253 253 250 221 174 206 215 192 183 169 171 175 151 144 154 140 141 150 150 176 192 197 217 242 243 202 182 208 245 249 193 165 167 185 211 224 226 229 235 240 239 239 244 247
313 295 279 263 254 250 241 246 267 263 239 242 262 335 260 245 229 236 241 1 342 349 28 355 57 91 200 219 215 199 206 217 192 186 198 189 196 201 203 208 193 202 231 228 236 248 244 218 185 209 217 179 176 175 173 173 171 184 190 180 195 203 196 209 204 200 223 246 222 166 190 219 243 257 256 234 203 196 216 229 228 230 231 230 236 244 246 243
320 308 288 264 250 245 242 246 251 237 192 176 158 148 229 243 235 219 202 234 308 47 31 338 37 56 12 283 260 214 206 212 188 189 209 198 201 209 215 219 208 211 230 218 227 241 238 211 185 191 209 191 192 189 179 178 188 200 199 198 209 208 213 220 212 211 231 242 210 165 200 242 256 267 256 237 230 216 217 221 225 239 240 238 251 263 265 255
323 311 290 267 253 247 244 242 238 219 172 152 152 163 209 234 252 194 183 215 261 333 334 332 338 315 302 242 259 133 215 238 207 202 212 195 200 213 217 221 215 217 229 220 229 231 235 231 179 183 191 186 198 204 184 167 182 200 201 208 216 212 219 225 215 217 228 240 189 171 190 220 220 256 205 229 250 233 224 220 226 258 259 251 266 264 262 256
325 310 289 269 254 247 238 231 228 206 167 148 175 205 213 232 257 256 234 241 272 300 301 316 321 295 275 233 211 149 187 244 224 210 215 203 210 213 207 214 213 212 215 220 225 219 237 249 175 183 193 181 198 209 179 157 183 202 197 207 216 214 218 231 234 215 224 304 194 186 222 235 228 275 96 148 341 270 234 215 221 250 253 243 254 255 250 245
325 313 288 261 250 246 232 220 212 190 164 152 200 216 223 232 224 217 267 285 264 307 310 301 277 261 261 229 216 186 184 212 220 213 221 214 218 220 215 211 204 205 208 211 217 209 235 246 175 180 204 194 200 203 179 169 181 194 199 208 212 217 221 232 248 129 159 259 224 183 230 250 260 273 242 218 226 212 208 206 211 238 253 252 255 252 244 232
324 312 280 258 255 251 232 213 199 182 166 173 213 220 220 224 231 226 258 344 309 318 313 297 289 285 278 245 248 185 172 199 215 202 219 216 222 228 224 221 205 204 208 214 230 230 238 253 176 171 203 209 205 208 197 193 187 170 198 199 155 33 239 232 240 208 189 244 232 196 224 237 239 254 229 209 218 216 212 214 205 221 247 249 247 249 246 220
320 302 273 267 263 253 231 207 192 180 164 192 221 229 214 193 216 218 221 273 297 337 306 262 266 314 306 273 296 144 172 207 204 197 224 210 212 217 215 222 217 207 211 215 227 242 239 255 215 177 203 205 187 202 231 232 223 228 215 188 157 170 197 200 227 225 214 234 240 227 233 237 229 232 202 191 204 212 219 222 220 230 239 238 242 249 245 202
320 304 272 277 276 253 223 200 186 176 167 203 223 231 208 197 214 208 219 245 252 292 265 246 234 245 263 269 314 357 187 239 278 256 249 207 228 226 210 217 218 210 213 214 219 230 219 240 235 191 190 175 162 198 210 223 235 279 280 190 174 206 207 202 212 217 225 233 242 241 236 235 232 231 228 212 192 188 210 215 219 232 235 233 239 247 236 210
322 303 264 294 308 246 208 190 177 169 191 207 227 227 183 204 220 213 220 222 211 232 246 236 218 226 251 262 279 272 244 249 258 268 255 229 277 284 222 224 230 219 212 210 217 227 212 227 240 209 172 172 185 202 199 199 204 214 227 197 187 201 227 225 219 216 229 232 237 245 242 240 234 214 219 225 215 203 208 208 209 222 230 234 238 236 225 221
320 303 252 299 296 207 181 174 169 183 205 228 243 229 205 206 205 209 219 221 230 250 266 248 241 243 244 235 250 236 224 237 222 219 240 230 254 261 202 219 278 261 223 210 213 219 212 218 230 230 207 204 209 204 208 216 207 196 199 193 190 193 198 221 223 217 224 231 233 247 254 251 225 174 202 215 217 214 214 214 212 215 226 231 229 215 216 228
311 295 264 300 234 176 160 172 209 190 216 233 233 227 218 215 214 221 220 222 246 252 282 261 249 250 248 246 254 221 217 244 229 222 239 224 224 236 182 100 13 351 316 239 221 209 207 230 232 234 233 223 224 214 222 269 259 234 226 205 195 194 197 215 223 213 211 225 235 253 263 259 221 155 192 205 210 212 209 211 216 219 227 235 236 219 224 234
308 289 285 277 208 173 161 217 204 202 231 226 235 230 214 216 218 217 216 218 228 223 220 248 249 249 247 234 213 199 221 241 229 226 241 243 238 240 221 164 175 84 24 270 240 203 165 205 230 242 250 233 231 244 304 341 297 261 259 236 219 208 204 215 230 229 220 214 216 238 253 254 220 157 182 189 197 208 201 205 220 230 238 245 247 237 229 230
300 278 284 254 197 175 170 233 210 221 228 224 256 230 213 221 219 210 210 210 209 205 221 235 233 236 241 221 198 213 215 223 224 222 231 244 246 236 220 205 196 170 155 227 240 218 206 196 207 232 245 233 224 231 242 234 215 244 243 232 237 231 225 232 266 262 237 211 207 223 242 249 209 153 150 144 178 204 205 203 213 225 233 232 235 236 230 214
303 265 278 258 200 183 187 234 225 251 233 232 244 231 219 229 222 220 220 215 210 210 227 235 216 213 224 216 218 223 215 226 238 226 223 236 241 222 223 220 204 189 198 199 178 162 277 217 201 216 225 228 228 222 221 216 211 224 231 231 237 232 232 239 241 239 233 212 216 227 243 252 229 166 136 145 197 210 207 208 215 226 236 235 234 244 241 219
317 278 286 316 223 216 266 323 324 289 251 243 248 231 220 229 229 215 218 221 217 215 232 242 219 212 216 215 233 241 226 226 234 235 232 231 230 216 181 202 204 207 218 211 184 129 313 248 232 233 229 231 239 238 212 198 205 206 205 218 227 225 226 231 233 234 227 223 231 230 240 253 247 223 181 160 199 217 208 206 214 223 234 237 237 253 260 236
298 289 302 329 311 246 255 278 276 269 282 272 250 213 217 226 228 193 205 219 215 215 234 242 220 227 233 224 238 246 233 224 228 237 240 233 238 261 209 168 207 213 213 213 191 156 240 263 258 257 254 251 256 263 251 219 220 219 211 213 218 218 219 224 232 237 232 236 240 231 232 245 250 247 229 182 188 213 216 214 217 219 228 234 237 249 248 232
268 279 330 332 289 275 269 285 280 273 280 276 253 256 252 235 221 207 208 222 221 209 220 234 219 222 233 234 241 250 241 232 231 234 240 241 246 262 263 238 230 218 206 203 190 179 233 259 250 252 262 263 266 275 274 259 249 243 230 224 220 214 213 220 228 232 232 238 244 239 237 242 249 254 250 224 198 201 215 225 222 220 235 235 233 233 229 222
279 285 306 118 264 289 291 291 290 279 271 267 254 247 258 253 239 228 203 189 228 212 207 233 231 215 220 226 233 246 242 234 238 235 230 238 241 248 259 258 246 221 200 193 198 192 221 253 248 243 254 259 256 261 266 263 260 258 252 246 239 229 220 221 226 229 233 241 248 251 254 256 259 264 267 263 230 202 212 223 198 193 221 223 224 225 221 215
325 307 306 292 271 274 273 269 272 277 273 267 258 240 246 253 250 246 213 182 215 208 198 229 238 218 214 217 221 239 238 232 248 254 231 233 236 225 240 252 246 218 203 205 225 216 212 239 246 240 251 256 247 240 244 246 249 255 256 255 256 254 244 236 235 234 236 241 242 248 258 261 260 267 275 276 259 214 207 218 216 219 223 221 222 221 218 216
316 303 289 285 288 278 269 264 260 273 277 264 261 258 256 256 253 256 245 208 211 206 196 221 232 223 222 219 221 238 240 232 246 254 248 254 255 233 228 235 191 162 221 226 229 215 218 249 258 241 252 259 243 232 238 238 237 242 247 247 250 254 255 251 245 241 241 241 236 238 244 247 244 249 256 261 258 239 205 202 216 226 224 222 224 222 219 219
318 308 292 279 285 278 275 281 272 270 274 267 270 268 262 263 260 259 261 221 207 215 216 222 225 216 225 226 226 237 241 233 244 252 251 263 265 255 240 228 198 198 222 213 204 186 192 246 273 253 253 261 251 240 243 245 241 236 231 229 229 231 236 241 245 248 249 249 244 239 240 241 241 242 246 254 257 250 223 204 210 223 229 229 228 223 218 219